Temperature
22 22 23 23 23 22 21 20 21 21 20 20 19 19 20 21 21 21 21 21 21 21 21 21 20 20 19 19 19 19 18 18 17 17 17 16 16 16 16 16 15 15 15 15
22 23 22 23 23 22 22 21 21 21 21 20 20 20 20 20 20 21 21 21 21 21 21 21 20 20 19 19 19 18 18 18 17 17 17 16 16 16 16 16 15 15 15 15
21 22 23 23 22 22 22 21 21 21 21 19 19 19 19 20 20 21 21 21 21 21 21 21 20 20 19 19 19 18 18 18 17 17 17 16 16 16 16 16 15 15 15 15
18 21 22 22 21 22 22 21 20 20 19 19 19 20 21 21 21 21 21 21 21 21 21 20 20 19 19 19 18 18 18 17 17 16 16 16 16 16 16 15 15 15 15 15
17 19 21 22 21 21 21 21 20 19 19 19 19 19 20 21 21 21 21 22 21 21 21 20 20 19 19 19 18 18 17 17 17 16 16 16 16 16 15 15 15 15 15 14
17 20 20 21 21 21 21 21 20 19 18 18 19 18 19 21 21 21 21 21 21 20 20 20 19 19 19 18 18 18 17 17 17 16 16 16 16 16 15 15 15 15 14 14
17 19 19 20 20 21 21 21 20 20 19 19 19 20 21 21 21 21 21 21 20 20 20 19 19 19 18 18 18 17 17 16 16 16 16 16 16 15 15 15 15 14 14 14
16 18 19 19 19 19 19 20 20 20 20 20 20 21 21 21 21 21 21 20 20 19 19 19 18 18 18 17 17 17 16 16 16 16 15 15 15 15 15 15 14 14 14 14
16 17 18 18 19 20 20 20 20 20 21 21 20 20 21 21 21 21 20 20 19 19 19 18 18 18 17 17 17 16 16 16 16 15 15 15 15 15 15 14 14 14 14 13
15 16 17 18 19 20 20 20 21 21 21 21 21 20 20 20 20 20 20 19 19 18 18 18 18 17 17 17 16 16 15 15 15 15 15 15 15 15 14 14 14 14 13 13
15 15 17 19 19 20 20 20 20 20 20 20 20 20 20 20 19 19 19 18 18 18 18 18 17 17 17 16 16 16 15 15 15 15 15 15 15 14 14 14 14 13 13 13
15 16 15 17 19 19 19 20 20 20 20 20 20 20 19 19 19 19 18 18 18 17 17 17 17 17 16 16 16 15 15 15 15 15 15 14 14 14 14 13 13 13 13 13
17 18 18 18 19 19 19 19 20 19 19 19 19 19 19 19 18 18 18 18 17 17 17 17 16 16 16 16 15 15 15 15 15 15 15 14 14 14 13 13 13 13 12 12
18 17 17 18 18 19 19 19 19 19 19 19 19 18 18 18 17 17 17 17 17 17 16 16 16 16 16 15 15 15 15 15 14 14 14 14 13 13 13 13 13 12 12 12
17 17 17 18 18 18 18 18 18 18 18 18 18 18 18 17 17 17 16 16 16 16 16 15 15 15 15 15 15 14 14 14 14 14 14 13 13 13 13 12 12 12 12 12
17 17 17 17 17 17 17 17 17 17 17 17 17 17 17 17 16 16 16 16 16 15 15 15 15 15 15 14 14 14 14 14 14 13 13 13 13 12 12 12 12 12 12 12
16 16 16 16 17 17 17 17 17 17 17 17 17 17 16 16 16 16 16 15 15 15 15 15 15 15 14 14 14 13 13 13 13 13 13 12 12 12 12 12 12 12 12 11
16 16 16 16 16 16 16 16 16 16 16 17 17 16 16 16 16 16 15 15 15 15 15 14 14 14 14 14 14 13 13 13 13 13 13 12 12 12 12 11 11 11 11 11
15 16 16 16 16 16 16 16 16 16 16 16 16 16 16 16 16 15 15 15 15 14 14 14 14 14 14 14 13 13 13 13 13 12 12 12 12 12 11 11 11 11 11 11
15 15 15 15 15 16 15 16 16 16 16 16 16 15 15 15 15 15 15 14 14 14 14 14 13 13 13 13 13 13 13 13 12 12 12 12 11 11 11 11 11 11 10 10
14 14 15 15 15 15 15 15 15 15 15 15 15 15 15 15 15 14 14 14 14 14 13 13 13 13 13 13 13 12 12 12 12 12 12 11 11 11 11 11 11 10 10 10
14 14 14 14 14 15 15 15 15 15 15 15 15 15 14 14 14 14 14 14 14 13 13 13 13 13 13 12 12 12 12 12 12 12 11 11 11 11 11 10 10 10 10 10
14 14 14 14 14 14 14 14 14 14 14 14 14 14 14 14 14 14 14 13 13 13 13 13 13 12 12 12 12 12 12 11 11 11 11 11 11 11 10 10 10 10 9 9
13 13 13 13 13 13 13 13 14 14 14 14 14 14 14 13 13 13 13 13 13 13 12 12 12 12 12 12 12 12 11 11 11 11 11 11 10 10 10 10 10 10 9 9
13 13 12 12 13 13 13 13 13 13 13 13 13 13 13 13 13 13 13 12 12 12 12 12 12 12 12 11 11 11 11 11 11 10 10 10 10 9 9 9 9 9 9 9
12 12 12 12 12 12 12 12 13 13 13 13 13 13 12 12 12 12 12 12 12 12 12 11 11 11 11 11 11 11 10 10 10 10 10 10 9 9 9 9 9 9 8 8
12 12 12 12 12 12 12 12 12 12 12 12 12 12 12 12 12 12 12 12 11 11 11 11 11 10 10 10 10 10 10 10 10 10 9 9 9 9 9 8 8 8 8 8
Wind_Speed
4 3 4 4 5 7 6 8 8 8 7 8 6 6 6 5 5 5 5 6 7 7 6 5 5 4 4 4 4 4 4 3 3 3 2 2 1 1 1 1 1 0 1 1
1 1 2 2 3 5 5 5 5 3 6 5 3 3 3 4 5 6 6 7 8 7 6 6 6 5 4 4 4 4 4 4 3 2 2 2 2 1 1 1 0 1 1 1
2 2 2 3 5 5 4 4 7 7 7 3 3 5 7 7 7 8 7 7 7 7 7 6 6 5 5 4 4 4 4 3 3 3 2 2 2 1 1 2 1 1 1 1
2 2 5 7 2 3 4 2 3 4 4 5 6 4 3 5 7 7 6 6 6 6 6 6 5 5 4 4 4 4 4 3 3 3 3 2 1 2 2 1 1 1 1 1
4 4 5 5 2 4 4 3 3 4 4 3 3 3 1 2 4 6 6 6 5 6 6 6 6 5 5 4 4 4 4 4 4 3 3 2 2 2 2 1 1 1 1 1
5 4 6 6 3 2 4 3 4 5 6 5 5 2 4 3 3 3 3 3 4 4 5 5 5 6 6 5 4 4 4 4 4 3 3 3 3 2 1 2 2 1 1 1
4 4 6 5 4 3 4 6 4 6 6 7 6 5 3 3 3 3 3 3 4 5 5 5 5 6 6 4 4 3 2 2 2 2 3 3 2 1 1 1 1 0 1 1
4 3 5 3 3 4 6 3 2 4 5 5 4 2 2 4 3 3 3 3 4 5 4 3 5 6 5 4 3 2 2 2 2 1 2 2 2 1 1 1 1 0 0 2
6 5 4 2 3 3 1 1 1 3 3 5 4 3 3 3 3 2 3 3 4 4 4 3 4 5 5 3 3 3 2 2 2 1 1 1 2 1 1 1 1 1 1 2
2 4 4 3 3 3 1 1 1 2 4 5 4 4 4 3 2 1 2 2 3 5 4 3 3 4 4 3 3 4 3 2 2 2 1 1 1 2 2 2 2 2 2 3
2 5 4 4 3 3 2 2 3 3 3 5 6 4 4 3 3 3 2 2 3 4 4 4 3 3 3 4 4 4 3 2 1 2 2 2 1 2 3 3 4 4 4 3
5 5 4 5 4 1 1 1 2 2 3 3 5 5 4 3 2 3 3 2 2 3 3 2 3 3 2 3 4 4 3 2 2 2 2 2 1 1 1 2 3 4 5 4
5 4 4 4 2 1 1 0 2 2 3 3 2 4 4 3 2 3 3 3 3 3 3 3 3 2 3 3 4 4 4 3 2 2 2 2 2 2 2 2 2 1 3 4
4 2 1 2 2 1 1 1 2 2 2 3 3 4 4 3 3 3 3 3 3 3 3 3 3 2 2 3 3 4 3 3 2 2 3 2 2 2 2 2 2 2 3 4
2 3 4 2 0 1 1 3 3 2 2 2 3 4 4 4 3 2 2 3 4 3 2 2 2 2 2 2 3 3 2 2 2 2 2 2 2 2 1 2 2 2 2 2
1 0 2 2 1 1 1 2 2 1 0 1 2 3 4 4 3 2 2 3 4 3 3 3 3 3 2 2 2 2 2 3 2 2 2 1 1 1 1 2 2 2 2 2
3 2 2 2 2 2 2 2 2 2 2 3 3 3 4 4 3 3 2 2 3 3 3 3 3 2 1 2 2 2 2 3 3 2 2 2 2 2 2 2 3 3 4 3
5 5 5 5 4 3 2 2 2 2 3 2 2 3 4 5 4 4 3 2 1 0 1 2 2 1 1 2 2 2 2 2 2 2 2 2 2 2 2 2 3 3 4 3
2 2 2 3 3 3 3 3 2 2 2 3 4 3 3 3 3 3 2 3 2 2 3 2 1 1 1 2 2 2 2 2 2 2 1 2 1 1 2 2 3 3 3 2
2 2 1 0 1 2 2 2 1 1 2 4 4 3 2 1 2 2 3 3 3 4 3 3 2 1 1 2 2 2 2 2 2 2 1 1 2 2 2 2 2 2 2 2
2 2 2 1 1 0 1 2 2 2 2 4 5 4 4 2 2 3 3 2 3 2 2 3 2 1 1 1 2 2 2 2 2 2 2 2 2 2 2 2 2 2 2 3
1 1 1 1 1 1 1 1 1 2 2 3 3 3 3 2 2 1 2 3 3 2 1 2 2 2 2 2 1 2 2 1 1 1 2 2 2 2 2 2 2 2 2 3
0 0 0 1 0 1 1 0 1 2 2 3 4 4 4 3 3 3 3 2 1 2 2 2 2 2 2 2 1 1 1 1 1 1 1 1 2 2 2 3 3 3 3 3
1 1 1 1 1 1 1 2 1 1 1 1 2 3 3 2 1 2 2 2 2 2 2 2 3 3 2 1 1 1 1 1 1 1 1 1 1 1 1 2 2 3 2 2
1 1 1 1 1 1 1 1 1 0 0 0 1 1 1 2 2 2 1 1 2 2 1 1 2 2 2 1 1 1 1 1 1 1 1 0 1 1 1 1 2 2 2 2
1 0 1 1 1 1 1 1 1 1 1 0 1 1 0 0 1 1 1 2 2 2 1 1 1 1 1 1 1 1 1 1 1 1 1 1 1 1 1 1 1 1 2 2
1 1 1 2 1 1 1 1 1 1 1 1 1 1 1 0 1 1 1 1 1 2 1 1 1 2 1 1 1 1 1 1 1 1 1 1 1 1 1 1 1 1 1 2
Wind_Direction
215 221 183 197 196 182 184 184 186 220 220 243 229 217 209 190 165 155 165 173 176 178 178 174 177 181 180 179 174 166 160 178 209 216 205 200 207 225 228 197 208 196 108 73
304 320 185 228 223 187 194 180 194 203 243 242 208 168 177 188 175 179 187 189 189 183 179 180 182 185 180 181 175 161 168 189 200 192 190 202 212 204 206 244 223 121 132 140
230 303 56 265 231 190 193 197 176 200 225 176 180 192 194 191 187 193 196 195 191 190 189 187 183 179 181 181 162 159 169 182 188 186 197 218 225 216 230 235 213 210 205 177
144 107 216 243 269 176 167 203 198 202 210 194 203 206 203 193 186 193 196 193 194 189 182 178 170 165 158 152 156 161 170 185 194 189 208 220 206 219 239 237 232 244 241 238
135 187 259 291 244 167 167 241 212 193 196 172 130 79 343 217 186 190 195 196 195 188 173 160 160 161 146 151 161 167 188 202 205 197 203 207 215 230 228 217 248 265 250 238
137 167 221 246 281 187 119 267 231 181 180 161 123 131 250 222 180 185 184 180 175 161 148 153 162 151 146 159 171 196 215 217 206 197 199 207 218 225 223 211 232 256 279 264
155 197 252 274 298 120 154 239 229 183 181 171 179 200 213 169 166 169 161 160 156 151 159 170 156 145 150 161 195 212 212 217 198 198 206 204 204 204 200 205 202 232 294 299
148 178 252 314 99 164 223 272 203 184 180 176 182 159 141 155 162 153 140 130 144 153 162 153 146 147 155 183 198 149 150 174 185 193 212 190 165 184 173 159 168 201 302 315
186 204 243 272 232 267 223 214 216 179 180 161 156 163 155 161 160 159 142 144 148 153 147 138 151 157 166 187 146 136 150 184 194 183 191 169 170 190 196 171 195 238 248 275
262 273 280 286 310 336 339 226 216 156 153 147 153 157 154 154 150 136 120 145 143 144 149 163 170 167 167 160 148 150 174 201 193 188 202 186 186 193 200 208 218 228 238 252
269 284 318 320 322 329 1 33 63 93 127 149 148 157 166 164 168 163 144 148 149 158 171 185 178 175 162 154 151 163 186 199 195 188 188 192 208 219 219 224 215 217 227 227
224 233 211 259 289 304 66 47 76 96 96 127 152 160 156 167 177 159 150 147 148 155 167 182 172 172 171 168 161 166 186 198 204 203 197 199 211 285 280 242 250 224 221 221
226 238 219 250 288 303 243 141 95 110 141 150 143 142 146 154 159 144 141 148 158 171 172 167 164 183 197 182 170 177 193 201 204 200 197 204 214 226 280 318 326 271 253 249
228 192 265 269 258 308 83 101 99 88 105 124 119 116 123 114 120 138 161 172 159 147 148 160 173 206 218 187 178 185 191 200 198 202 204 209 214 218 218 239 283 298 291 276
263 218 207 226 34 66 78 91 83 63 67 88 107 122 128 129 149 169 162 132 123 125 139 164 191 232 225 178 172 184 193 203 198 198 205 204 201 206 212 232 252 278 310 316
288 236 154 145 168 185 95 105 122 207 179 151 140 155 156 161 157 130 127 135 142 170 196 196 219 241 218 185 180 194 212 215 189 185 202 206 195 200 221 246 263 271 274 280
178 200 176 182 203 207 200 190 198 214 211 199 190 176 152 138 126 134 149 169 178 194 201 204 231 240 205 196 195 206 211 213 202 194 207 207 204 212 219 236 255 267 271 264
212 210 201 194 202 207 224 228 216 217 222 220 171 151 156 160 171 187 191 165 138 90 270 243 231 211 215 214 202 205 199 202 203 210 213 208 213 219 221 240 256 271 286 289
187 183 190 190 194 191 205 217 219 222 203 159 155 163 170 175 184 193 179 154 162 222 267 272 230 184 234 242 205 190 191 196 204 214 212 214 224 223 231 243 256 268 277 288
99 112 122 137 180 172 196 213 186 182 173 156 150 147 155 185 177 166 151 169 211 224 228 229 214 216 239 236 191 179 188 193 204 212 216 225 233 240 241 255 269 279 284 280
84 81 88 60 10 359 209 189 178 192 177 158 164 176 183 197 188 164 154 218 260 237 208 197 191 218 242 225 180 173 185 194 206 214 224 232 240 245 249 256 267 270 274 276
77 81 53 20 46 341 306 222 181 171 159 165 168 165 164 186 204 224 229 225 242 239 208 201 208 216 209 175 172 176 184 199 221 232 241 238 234 239 249 256 261 268 269 273
139 108 271 283 249 279 337 318 168 161 171 188 186 187 194 209 205 205 251 258 220 203 200 219 222 212 196 168 175 186 196 208 228 240 244 243 246 251 255 262 268 272 278 282
22 9 331 5 72 74 330 293 288 177 192 226 228 216 197 197 244 241 228 221 193 180 196 221 208 193 171 165 170 183 201 219 230 232 230 245 271 278 281 278 279 284 283 286
29 31 51 82 108 212 246 287 338 352 94 25 293 258 220 195 203 222 202 189 179 165 181 204 192 176 158 160 173 192 208 216 214 203 206 244 286 289 289 293 295 294 296 304
36 45 283 248 222 232 252 239 241 253 200 245 301 291 251 185 181 189 177 172 167 172 173 152 152 160 159 160 173 190 192 185 171 171 194 241 278 284 288 301 318 327 323 320
34 24 352 336 321 268 236 229 230 257 233 195 262 293 289 174 153 158 157 157 157 165 162 152 152 167 176 169 166 173 172 164 160 169 186 227 259 283 302 316 331 337 333 333
Height
1485 1481 1481 1482 1483 1487 1490 1494 1501 1497 1495 1487 1484 1483 1483 1484 1486 1488 1490 1491 1494 1496 1498 1500 1502 1504 1505 1506 1508 1509 1509 1510 1511 1511 1512 1512 1511 1511 1511 1511 1510 1510 1510 1509
1484 1480 1480 1482 1480 1482 1484 1486 1488 1488 1488 1480 1480 1482 1483 1484 1485 1487 1488 1489 1491 1494 1496 1498 1500 1502 1503 1505 1506 1507 1508 1509 1509 1510 1510 1510 1510 1509 1509 1509 1509 1509 1508 1508
1493 1484 1481 1489 1480 1479 1480 1479 1482 1486 1482 1478 1480 1480 1480 1481 1483 1484 1486 1488 1490 1492 1494 1495 1498 1500 1502 1503 1505 1506 1506 1507 1507 1508 1508 1508 1508 1508 1508 1508 1508 1507 1507 1506
1497 1491 1500 1485 1472 1472 1475 1476 1476 1476 1476 1476 1476 1477 1478 1480 1481 1483 1485 1486 1488 1490 1492 1494 1496 1498 1500 1502 1503 1504 1505 1505 1506 1506 1506 1506 1506 1506 1506 1506 1506 1505 1505 1504
1501 1500 1492 1479 1472 1472 1476 1478 1473 1474 1474 1475 1476 1477 1479 1479 1480 1481 1483 1485 1487 1489 1490 1493 1495 1497 1498 1500 1501 1502 1503 1503 1504 1504 1504 1504 1504 1504 1504 1504 1503 1503 1503 1502
1498 1498 1499 1481 1469 1468 1473 1480 1471 1471 1473 1474 1476 1482 1479 1478 1479 1481 1483 1484 1486 1487 1489 1491 1493 1495 1496 1498 1499 1500 1501 1501 1502 1502 1502 1502 1502 1502 1502 1502 1501 1501 1501 1500
1494 1494 1488 1473 1468 1468 1484 1480 1468 1469 1470 1472 1473 1475 1476 1476 1478 1480 1481 1483 1485 1486 1488 1489 1491 1493 1494 1496 1497 1498 1500 1501 1501 1500 1501 1501 1500 1500 1500 1500 1500 1499 1499 1499
1494 1494 1489 1471 1469 1474 1473 1467 1466 1467 1468 1470 1471 1473 1474 1476 1477 1479 1480 1482 1483 1485 1486 1488 1490 1491 1492 1494 1496 1497 1498 1499 1498 1499 1499 1499 1498 1498 1498 1498 1498 1497 1497 1497
1483 1483 1473 1470 1469 1469 1468 1467 1466 1466 1468 1469 1471 1472 1474 1475 1477 1478 1479 1481 1483 1484 1485 1486 1488 1489 1490 1492 1494 1495 1495 1496 1497 1497 1497 1497 1496 1496 1496 1496 1495 1495 1495 1494
1478 1473 1470 1469 1468 1467 1467 1466 1466 1466 1467 1469 1470 1472 1473 1474 1476 1477 1479 1480 1482 1483 1484 1485 1486 1487 1489 1490 1492 1493 1494 1494 1494 1494 1495 1494 1494 1494 1494 1493 1493 1493 1493 1492
1476 1472 1469 1467 1467 1467 1466 1466 1466 1466 1467 1468 1470 1472 1473 1474 1476 1477 1478 1480 1481 1482 1483 1484 1485 1486 1487 1488 1490 1491 1491 1492 1492 1492 1492 1491 1491 1491 1491 1491 1491 1490 1490 1490
1475 1469 1469 1467 1466 1467 1466 1466 1466 1467 1467 1469 1470 1472 1473 1474 1475 1476 1477 1479 1480 1481 1482 1483 1485 1485 1486 1487 1488 1489 1489 1489 1489 1489 1489 1489 1488 1488 1488 1488 1488 1488 1488 1488
1467 1466 1466 1466 1466 1466 1466 1466 1467 1467 1468 1469 1470 1471 1472 1473 1474 1475 1476 1478 1479 1480 1481 1482 1483 1484 1485 1485 1486 1487 1487 1487 1487 1486 1486 1486 1485 1485 1485 1485 1485 1485 1485 1485
1464 1465 1464 1464 1465 1465 1466 1466 1466 1467 1468 1468 1469 1470 1471 1472 1473 1475 1475 1477 1478 1479 1480 1481 1482 1483 1484 1484 1484 1485 1485 1485 1484 1484 1484 1484 1483 1483 1483 1482 1482 1482 1482 1482
1462 1463 1463 1463 1464 1465 1465 1466 1465 1466 1467 1468 1468 1469 1470 1471 1473 1475 1475 1476 1477 1479 1479 1480 1481 1482 1483 1483 1483 1482 1482 1482 1482 1482 1482 1481 1481 1481 1481 1481 1480 1479 1479 1479
1461 1461 1461 1462 1463 1463 1464 1465 1465 1466 1467 1467 1468 1469 1470 1472 1472 1473 1474 1475 1476 1477 1478 1479 1480 1480 1481 1481 1481 1481 1480 1481 1480 1480 1480 1479 1479 1479 1478 1479 1478 1477 1477 1476
1459 1459 1459 1460 1461 1462 1463 1464 1465 1466 1466 1467 1468 1469 1470 1470 1470 1472 1473 1475 1476 1476 1477 1477 1478 1478 1479 1479 1479 1479 1479 1478 1478 1478 1478 1477 1476 1476 1476 1475 1475 1475 1475 1474
1457 1458 1458 1459 1460 1461 1461 1463 1464 1464 1465 1466 1467 1467 1468 1468 1469 1470 1472 1473 1474 1475 1475 1475 1476 1476 1476 1477 1477 1476 1476 1476 1476 1476 1475 1474 1474 1473 1473 1473 1473 1472 1472 1471
1455 1456 1456 1457 1458 1459 1460 1461 1462 1463 1464 1464 1465 1465 1466 1467 1468 1469 1470 1470 1471 1472 1472 1473 1474 1474 1474 1474 1474 1474 1474 1473 1473 1473 1472 1472 1471 1471 1471 1470 1470 1469 1469 1468
1454 1455 1455 1456 1457 1457 1458 1460 1460 1461 1462 1463 1464 1464 1465 1466 1467 1467 1467 1467 1469 1470 1471 1471 1471 1471 1471 1471 1471 1471 1471 1471 1471 1470 1470 1469 1469 1469 1468 1468 1467 1466 1466 1465
1453 1454 1454 1455 1456 1456 1457 1458 1459 1460 1460 1461 1462 1463 1464 1465 1466 1465 1465 1466 1467 1468 1469 1469 1469 1469 1469 1469 1468 1468 1468 1468 1468 1468 1467 1467 1466 1466 1465 1465 1464 1463 1463 1462
1453 1453 1454 1454 1455 1455 1456 1457 1458 1458 1459 1460 1461 1462 1462 1462 1463 1463 1463 1464 1464 1465 1465 1466 1466 1466 1466 1466 1466 1466 1466 1466 1466 1465 1465 1464 1464 1463 1463 1462 1461 1461 1460 1459
1452 1452 1453 1453 1454 1454 1455 1456 1456 1457 1457 1458 1459 1459 1460 1460 1461 1461 1461 1462 1462 1463 1463 1463 1464 1464 1464 1464 1464 1464 1464 1463 1463 1463 1462 1462 1461 1461 1460 1460 1459 1458 1457 1456
1451 1452 1452 1453 1453 1453 1454 1454 1455 1455 1456 1457 1457 1458 1458 1458 1459 1459 1460 1460 1460 1460 1461 1461 1462 1462 1462 1462 1462 1462 1461 1461 1461 1460 1460 1459 1459 1459 1458 1457 1457 1456 1454 1453
1451 1451 1451 1452 1452 1452 1453 1453 1453 1454 1454 1455 1455 1456 1456 1457 1457 1458 1458 1458 1458 1458 1459 1459 1460 1460 1459 1459 1459 1459 1459 1458 1458 1458 1457 1457 1457 1456 1455 1454 1454 1452 1451 1450
1451 1451 1451 1451 1451 1451 1452 1452 1452 1452 1452 1452 1453 1454 1454 1455 1455 1456 1456 1456 1456 1456 1457 1457 1457 1457 1457 1457 1456 1456 1456 1456 1456 1455 1455 1455 1454 1454 1453 1452 1451 1450 1448 1447
1451 1450 1450 1450 1450 1450 1451 1451 1450 1450 1450 1451 1451 1452 1452 1452 1453 1453 1453 1454 1454 1454 1454 1454 1454 1454 1454 1454 1454 1454 1454 1454 1454 1453 1453 1452 1452 1451 1450 1449 1448 1447 1446 1444